[[{"header":{"parameterUnit":"m.s-1","parameterCategory":1,"la1":30.2992,"la2":30.254,"lo1":-89.0895,"lo2":-89.0443,"dy":0.0025,"dx":0.0025,"nx":19,"ny":19,"refTime":"2026-04-03T21:00:00:Z","depth":0,"parameterNumber":2,"parameterNumberName":"U-component_of_WINDS"},"data":[0,0,0,-4.4121,-4.4125,-4.428,-4.4281,-4.4478,-4.448,0,0,0,0,0,0,0,0,0,0,0,-4.4075,-4.4076,-4.4121,-4.4125,-4.428,-4.4281,-4.4478,-4.448,0,0,0,0,0,0,0,0,0,0,0,-4.4074,-4.4076,-4.4078,-4.4125,-4.428,-4.4281,-4.4477,-4.436,0,0,0,0,0,0,0,0,0,0,-4.421,-4.4167,-4.4076,-4.4078,-4.4126,-4.428,-4.4281,-4.4355,-4.4368,-4.4407,0,-4.4443,0,-4.4464,-4.4493,-4.4493,0,0,0,-4.4125,-4.4156,-4.4198,-4.4078,-4.4128,-4.428,-4.421,-4.4362,-4.4376,-4.4424,-4.4446,-4.4453,-4.4468,-4.4494,-4.4495,-4.4724,-4.4725,0,0,-4.4116,-4.4103,-4.4188,-4.4208,-4.4185,-4.4205,-4.4215,-4.4371,-4.4393,-4.4446,-4.4458,-4.4471,-4.4495,-4.4497,-4.4723,-4.4724,0,0,0,-4.4092,-4.4097,-4.4135,-4.42,-4.4228,-4.421,-4.4221,-4.4386,-4.44,-4.446,-4.4473,-4.4496,-4.4499,-4.4722,-4.4724,-4.4762,0,0,0,-4.4086,-4.4082,-4.4131,-4.4125,-4.4225,-4.4309,-4.4232,-4.4389,-4.4407,-4.4472,-4.4497,-4.4501,-4.4721,-4.4723,-4.4758,-4.4781,0,0,0,-4.4065,-4.408,-4.4102,-4.4123,-4.419,-4.4307,-4.433,-4.4393,-4.4415,-4.4494,-4.4501,-4.472,-4.4722,-4.4755,-4.4776,-4.4835,0,0,0,-4.4038,-4.4135,-4.4103,-4.4216,-4.4189,-4.433,-4.4329,-4.4435,-4.4507,-4.4498,-4.4721,-4.4723,-4.4754,-4.4773,-4.4832,-4.4881,-4.4901,0,0,-4.4152,-4.4148,-4.4216,-4.4192,-4.4335,-4.4308,-4.4457,-4.4536,-4.4556,-4.4667,-4.4673,-4.4759,-4.4775,-4.4834,-4.5023,-4.5038,0,0,0,-4.4247,-4.4295,-4.4337,-4.4405,-4.4468,-4.4523,-4.4581,-4.461,-4.4705,-4.461,-4.4799,-4.4809,-4.4844,-4.4868,-4.4881,-4.4911,-4.4735,-4.4735,-4.4734,-4.4387,-4.4409,-4.4522,-4.4561,-4.4628,-4.4687,-4.4742,-4.4791,-4.4793,-4.4837,-4.4869,-4.4981,-4.5008,-4.5018,-4.5049,-4.4899,-4.49,-4.49,-4.49,-4.4554,-4.4625,-4.4626,-4.4736,-4.4757,-4.485,-4.4911,-4.4909,-4.4997,-4.4959,-4.4991,-4.4943,-4.5035,-4.5063,-4.4903,-4.4902,-4.4902,-4.4902,-4.4902,-4.4646,-4.4683,-4.4718,-4.4818,-4.4893,-4.4931,-4.5016,-4.5033,-4.505,-4.5082,-4.5116,-4.5116,-4.5114,-4.5098,-4.5098,-4.5099,-4.5099,-4.5099,-4.51,-4.4725,-4.4763,-4.4832,-4.4908,-4.4954,-4.5016,-4.5078,-4.5123,-4.5178,-4.5183,-4.5184,-4.5179,-4.5041,-4.5004,-4.5106,-4.5105,-4.5104,-4.5103,-4.5103,-4.488,-4.4848,-4.4955,-4.5001,-4.5091,-4.5163,-4.5186,-4.5277,-4.5317,-4.5358,-4.5349,-4.5245,-4.5241,-4.523,-4.5199,-4.5345,-4.5345,-4.5345,-4.5345,-4.4955,-4.4956,-4.5068,-4.514,-4.5213,-4.5244,-4.5363,-4.5412,-4.5457,-4.5483,-4.5466,-4.5428,-4.5416,-4.5419,-4.5405,-4.5376,-4.5563,-4.5563,-4.5564,-4.505,-4.5059,-4.5156,-4.5201,-4.5273,-4.5334,-4.5446,-4.5528,-4.5573,-4.5573,-4.5503,-4.5494,-4.5433,-4.5413,-4.5407,-4.5384,-4.5331,0,0]},{"header":{"parameterUnit":"m.s-1","parameterCategory":1,"la1":30.2992,"la2":30.254,"lo1":-89.0895,"lo2":-89.0443,"dy":0.0025,"dx":0.0025,"nx":19,"ny":19,"refTime":"2026-04-03T21:00:00:Z","depth":0,"parameterNumber":3,"parameterNumberName":"V-component_of_WINDS"},"data":[0,0,0,3.0178,3.018,3.0302,3.0302,3.0453,3.0455,0,0,0,0,0,0,0,0,0,0,0,3.014,3.0141,3.0178,3.0181,3.0301,3.0302,3.0453,3.0455,0,0,0,0,0,0,0,0,0,0,0,3.014,3.0141,3.0142,3.0181,3.0301,3.0302,3.0453,3.0363,0,0,0,0,0,0,0,0,0,0,3.0246,3.021,3.0141,3.0142,3.0182,3.0301,3.0302,3.0358,3.0368,3.0398,0,3.0423,0,3.0442,3.0465,3.0465,0,0,0,3.0182,3.0201,3.0236,3.0143,3.0183,3.0301,3.0247,3.0364,3.0375,3.0411,3.0426,3.0431,3.0444,3.0466,3.0466,3.0636,3.0636,0,0,3.0175,3.0161,3.0228,3.0243,3.0225,3.0243,3.0251,3.0371,3.0386,3.0426,3.0435,3.0447,3.0467,3.0468,3.0635,3.0636,0,0,0,3.0155,3.0156,3.0188,3.0237,3.0259,3.0247,3.0256,3.038,3.0392,3.0437,3.0448,3.0468,3.0469,3.0634,3.0635,3.066,0,0,0,3.0151,3.0145,3.0185,3.0177,3.0256,3.0321,3.0262,3.0384,3.0398,3.0448,3.0468,3.0471,3.0633,3.0635,3.0658,3.0674,0,0,0,3.0133,3.0143,3.016,3.0176,3.0228,3.0319,3.0338,3.0387,3.0405,3.0465,3.0471,3.0633,3.0635,3.0656,3.067,3.0716,0,0,0,3.0109,3.0178,3.016,3.0241,3.0227,3.0334,3.0337,3.0417,3.0472,3.0468,3.0634,3.0635,3.0655,3.0668,3.0714,3.0752,3.0767,0,0,3.0188,3.0187,3.0236,3.0224,3.0331,3.0317,3.0428,3.049,3.0508,3.0592,3.0596,3.0659,3.067,3.0716,3.0853,3.0865,0,0,0,3.0256,3.0292,3.0323,3.0376,3.0427,3.0472,3.052,3.0543,3.0616,3.0548,3.0688,3.0695,3.0722,3.0741,3.0751,3.0776,3.0643,3.0643,3.0643,3.0346,3.0368,3.0452,3.0489,3.054,3.059,3.0634,3.0674,3.0678,3.0711,3.0736,3.0817,3.0839,3.0847,3.0872,3.0758,3.0758,3.0758,3.0758,3.0464,3.0518,3.0526,3.061,3.0633,3.0703,3.0756,3.0757,3.0826,3.0799,3.0824,3.0793,3.0859,3.0882,3.076,3.076,3.076,3.0759,3.0759,3.0526,3.0556,3.0586,3.0667,3.0727,3.0761,3.0829,3.0846,3.0863,3.0888,3.0917,3.0917,3.092,3.0901,3.0901,3.0901,3.0902,3.0902,3.0902,3.0579,3.0611,3.0666,3.0729,3.0767,3.0819,3.0873,3.0911,3.0957,3.0965,3.0965,3.0967,3.0861,3.0834,3.0906,3.0906,3.0905,3.0905,3.0904,3.0691,3.0669,3.0754,3.0793,3.087,3.093,3.0952,3.1029,3.1062,3.1095,3.1094,3.1012,3.1011,3.1004,3.0982,3.1088,3.1088,3.1088,3.1088,3.0743,3.0746,3.0839,3.09,3.0961,3.0991,3.1089,3.1132,3.1173,3.1196,3.1183,3.1156,3.1147,3.1152,3.1141,3.1121,3.126,3.126,3.126,3.0814,3.0824,3.0903,3.0945,3.1007,3.1061,3.1153,3.1223,3.1265,3.1268,3.1215,3.1207,3.1163,3.1148,3.1147,3.113,3.1093,0,0]}]]